Page, AZ

9:01 PM MST on November 21, 2017 (GMT -0700)
Page Municipal

Weather History for KPGA - January, 2012

Change the Weather History Date:

Saturday, January 28, 2012

  Actual Average Record
Temperature  
Mean Temperature 37 °F -  
Max Temperature 46 °F 47 °F 60 °F (1970)
Min Temperature 28 °F 27 °F 17 °F (1979)
Degree Days  
Heating Degree Days 28    
Moisture  
Dew Point 11 °F    
Average Humidity 36    
Maximum Humidity 54    
Minimum Humidity 18    
Precipitation  
Precipitation 0.00 in - - ()
Sea Level Pressure  
Sea Level Pressure 30.45 in    
Wind  
Wind Speed 1 mph (ENE)    
Max Wind Speed 6 mph    
Max Gust Speed -    
Visibility 10 miles    
Events      
Averages and records for this station are not official NWS values.
T = Trace of Precipitation, MM = Missing Value Source: NWS Daily Summary

Daily Weather History Graph

Daily Weather History Graph

Search for Another Location

Airport or City:

Trip Planner

Search our weather history database for the weather conditions in past years. The results will help you decide how hot, cold, wet, or windy it might be!

Date:

Astronomy

Jan. 28, 2012 Rise Set
Actual Time 7:31 AM MST 5:46 PM MST
Civil Twilight 7:03 AM MST 6:13 PM MST
Nautical Twilight 6:32 AM MST 6:45 PM MST
Astronomical Twilight 6:02 AM MST 7:15 PM MST
Moon 10:05 AM MST (1/28) 11:27 PM MST (1/28)
Length of Visible Light 11h 09m
Length of Day
10h 14m
Waxing Crescent, 28% of the Moon is Illuminated
Jan 28
Waxing Crescent
Jan 30
First Quarter
Feb 7
Full
Feb 14
Last Quarter
Feb 21
New

Hourly Weather History & Observations

Time (MST) Temp. Windchill Dew Point Humidity Pressure Visibility Wind Dir Wind Speed Gust Speed Precip Events Conditions
12:53 AM 35.1 °F 32.2 °F 15.1 °F 44% 30.33 in 10.0 mi SSW 3.5 mph - N/A   Clear
1:53 AM 33.1 °F - 14.0 °F 46% 30.34 in 8.0 mi Calm Calm - N/A   Clear
2:53 AM 35.1 °F - 12.9 °F 40% 30.36 in 10.0 mi Calm Calm - N/A   Clear
3:53 AM 33.1 °F - 15.1 °F 48% 30.36 in 10.0 mi Calm Calm - N/A   Clear
4:53 AM 30.9 °F - 15.1 °F 52% 30.38 in 10.0 mi Calm Calm - N/A   Clear
5:53 AM 30.0 °F - 15.1 °F 54% 30.40 in 10.0 mi Calm Calm - N/A   Clear
6:53 AM 30.0 °F - 15.1 °F 54% 30.44 in 10.0 mi Calm Calm - N/A   Clear
7:53 AM 28.9 °F - 14.0 °F 54% 30.48 in 5.0 mi Calm Calm - N/A   Haze
8:53 AM 34.0 °F - 16.0 °F 48% 30.48 in 10.0 mi Calm Calm - N/A   Clear
9:53 AM 37.9 °F 35.5 °F 14.0 °F 38% 30.51 in 10.0 mi ENE 3.5 mph - N/A   Clear
10:53 AM 41.0 °F 39.0 °F 12.9 °F 32% 30.52 in 10.0 mi NE 3.5 mph - N/A   Clear
11:53 AM 42.1 °F - 12.0 °F 29% 30.51 in 10.0 mi Calm Calm - N/A   Clear
12:53 PM 43.0 °F - 9.0 °F 25% 30.48 in 10.0 mi Calm Calm - N/A   Clear
1:53 PM 45.0 °F 43.5 °F 8.1 °F 22% 30.47 in 10.0 mi Variable 3.5 mph - N/A   Clear
2:53 PM 46.0 °F - 7.0 °F 20% 30.44 in 10.0 mi Calm Calm - N/A   Clear
3:53 PM 46.9 °F - 5.0 °F 18% 30.44 in 10.0 mi ENE 4.6 mph - N/A   Clear
4:53 PM 46.0 °F 44.8 °F 3.9 °F 18% 30.44 in 10.0 mi NNE 3.5 mph - N/A   Clear
5:53 PM 43.0 °F - 3.9 °F 20% 30.45 in 10.0 mi Calm Calm - N/A   Clear
6:53 PM 39.0 °F - 7.0 °F 27% 30.47 in 10.0 mi Calm Calm - N/A   Clear
7:53 PM 37.9 °F 33.5 °F 9.0 °F 30% 30.48 in 10.0 mi SSE 5.8 mph - N/A   Clear
8:53 PM 36.0 °F 33.3 °F 10.0 °F 34% 30.48 in 9.0 mi West 3.5 mph - N/A   Clear
9:53 PM 35.1 °F - 12.0 °F 39% 30.48 in 8.0 mi Calm Calm - N/A   Clear
10:53 PM 34.0 °F - 10.0 °F 37% 30.48 in 8.0 mi Calm Calm - N/A   Clear
11:53 PM 34.0 °F - 12.0 °F 40% 30.49 in 10.0 mi Calm Calm - N/A   Clear